Regional Weather Roundup
Issued by NWS

Home | Current Version | Previous Version | Graphics & Text | Print | Product List | Glossary Off
Versions: 1 2 3 4 5 6 7 8 9 10 11 12 13 14 15 16 17 18 19 20 21 22 23 24 25 26 27 28 29 30 31 32 33 34 35 36 37 38 39 40 41 42 43 44 45 46 47 48 49 50

000
ASUS43 KLMK 081810
RWRKY
KENTUCKY REGIONAL WEATHER ROUNDUP
NATIONAL WEATHER SERVICE LOUISVILLE KY
100 PM EST MON FEB 08 2016

NOTE "FAIR" INDICATES FEW OR NO CLOUDS BELOW 12,000 FEET
WITH NO SIGNIFICANT WEATHER AND/OR OBSTRUCTIONS TO VISIBILITY.

KYZ001>023-026-027-061>063-070>075-081900-
WESTERN AND SOUTH CENTRAL KENTUCKY

CITY           SKY/WX    TMP DP  RH WIND       PRES   REMARKS
PADUCAH        CLOUDY    36  21  54 NW16G24   29.84F WCI  26
HENDERSON      CLOUDY    36  21  55 W23       29.79S WCI  24
OWENSBORO      CLOUDY    38  25  60 W20G26    29.77S WCI  28
HOPKINSVILLE   FLURRIES  39  28  63 W9        29.79F WCI  33
BOWLING GREEN  LGT SNOW  37  31  78 W12G18    29.77S WCI  29
GLASGOW        CLOUDY    40  30  68 W9        29.73F WCI  34
$$

KYZ024-025-028>034-038-045-046-053-081900-
NORTH CENTRAL KENTUCKY

CITY           SKY/WX    TMP DP  RH WIND       PRES   REMARKS
LOUISVILLE/SDF LGT SNOW  37  31  78 W18G26    29.70F WCI  27
LOUISVILLE/LOU CLOUDY    39  30  70 W12       29.70F WCI  32
FORT KNOX      LGTSLEET  37  32  81 W9        29.68F WCI  31
$$

KYZ035>037-039>044-047>052-055>060-089>105-081900-
NORTHEAST KENTUCKY

CITY           SKY/WX    TMP DP  RH WIND       PRES   REMARKS
LEXINGTON      CLOUDY    35  33  92 SW10      29.67F WCI  27
COVINGTON      CLOUDY    39  32  76 NW5       29.63F
FRANKFORT      CLOUDY    38  31  76 W10G22    29.67F WCI  31
$$

KYZ054-064>069-076>088-106>120-081900-
SOUTHEAST KENTUCKY

CITY           SKY/WX    TMP DP  RH WIND       PRES   REMARKS
JACKSON        LGT RAIN  41  30  65 VRB5      29.61F
LONDON         CLOUDY    34  31  88 W12G21    29.68F WCI  25
SOMERSET       LGT RAIN  34  32  93 W8        29.73S WCI  27
MIDDLESBORO    RAIN      41  33  73 SW17G28   29.69F
MONTICELLO     CLOUDY    39  33  79 W15G24    29.74F WCI  31
$$




USA.gov is the U.S. government's official web portal to all federal, state and local government web resources and services.